Weather History for Houlton, ME

Change the Weather History Date:

Saturday, June 22, 2013

  Actual Average Record
Temperature  
Mean Temperature 57 °F 62 °F  
Max Temperature 74 °F 74 °F 92 °F (1983)
Min Temperature 40 °F 50 °F 36 °F (1948)
Degree Days  
Heating Degree Days 8 4  
Month to date heating degree days 166 149  
Since 1 June heating degree days 166 149  
Since 1 July heating degree days 8516 9156  
Cooling Degree Days 0 2  
Month to date cooling degree days 10 19  
Year to date cooling degree days 14 23  
Since 1 June cooling degree days 10 19  
Growing Degree Days 7 (Base 50)    
Moisture  
Dew Point 53 °F    
Average Humidity 73    
Maximum Humidity 100    
Minimum Humidity 45    
Precipitation  
Precipitation T in 0.13 in 2.53 in (1992)
Month to date precipitation 4.27 2.60  
Year to date precipitation 15.50 17.23  
Sea Level Pressure  
Sea Level Pressure 30.13 in    
Wind  
Wind Speed 5 mph (SW)    
Max Wind Speed 15 mph    
Max Gust Speed 18 mph    
Visibility 10 miles    
Events Rain    
T = Trace of Precipitation, MM = Missing Value Source: NWS Daily Summary

Daily Weather History Graph

Daily Weather History Graph

Search for Another Location

Airport:

Trip Planner

Search our weather history database for the weather conditions in past years. The results will help you decide how hot, cold, wet, or windy it might be!

Date:

Astronomy

Jun. 22, 2013 Rise Set
Actual Time 4:40 AM EDT 8:26 PM EDT
Civil Twilight 4:01 AM EDT 9:05 PM EDT
Nautical Twilight 3:08 AM EDT 9:57 PM EDT
Astronomical Twilight 1:55 AM EDT 11:11 PM EDT
Moon 7:33 PM EDT (6/22) 3:52 AM EDT (6/22)
Length of Visible Light 17h 03m
Length of Day
15h 46m
Waxing Gibbous, 99% of the Moon is Illuminated
Jun 22
Waxing Gibbous
Jun 23
Full
Jun 30
Last Quarter
Jul 8
New
Jul 15
First Quarter

Hourly Weather History & Observations

Time (EDT) Temp. Dew Point Humidity Pressure Visibility Wind Dir Wind Speed Gust Speed Precip Events Conditions
12:53 AM 46.0 °F 45.0 °F 96% 30.19 in 10.0 mi Calm Calm - N/A   Clear
1:53 AM 45.0 °F 44.1 °F 97% 30.18 in 10.0 mi Calm Calm - N/A   Clear
2:53 AM 43.0 °F 42.1 °F 97% 30.18 in 10.0 mi Calm Calm - N/A   Clear
3:53 AM 41.0 °F 41.0 °F 100% 30.19 in 9.0 mi Calm Calm - N/A   Clear
4:53 AM 42.1 °F 41.0 °F 96% 30.18 in 8.0 mi Calm Calm - N/A   Clear
5:53 AM 46.9 °F 46.0 °F 97% 30.18 in 8.0 mi Calm Calm - N/A   Clear
6:53 AM 54.0 °F 51.1 °F 90% 30.17 in 10.0 mi Calm Calm - N/A   Clear
7:53 AM 64.0 °F 51.1 °F 63% 30.17 in 10.0 mi SSW 3.5 mph - N/A   Mostly Cloudy
8:53 AM 66.0 °F 45.0 °F 47% 30.16 in 10.0 mi SSW 5.8 mph - N/A   Partly Cloudy
9:53 AM 68.0 °F 48.9 °F 50% 30.15 in 10.0 mi SW 6.9 mph - N/A   Clear
10:53 AM 69.1 °F 52.0 °F 54% 30.15 in 10.0 mi SSW 3.5 mph - N/A   Partly Cloudy
11:53 AM 68.0 °F 55.9 °F 65% 30.17 in 10.0 mi West 12.7 mph - 0.00 in Rain Light Rain
12:53 PM 64.0 °F 59.0 °F 84% 30.17 in 10.0 mi WSW 5.8 mph - 0.00 in Rain Light Rain
1:53 PM 66.9 °F 62.1 °F 84% 30.15 in 10.0 mi SW 6.9 mph - 0.00 in Rain Light Rain
2:53 PM 70.0 °F 60.1 °F 71% 30.13 in 10.0 mi West 9.2 mph - 0.00 in   Overcast
3:53 PM 70.0 °F 60.1 °F 71% 30.12 in 10.0 mi WSW 6.9 mph - N/A   Partly Cloudy
4:53 PM 72.0 °F 61.0 °F 68% 30.09 in 10.0 mi West 12.7 mph - N/A   Mostly Cloudy
5:53 PM 73.9 °F 61.0 °F 64% 30.06 in 10.0 mi SW 8.1 mph - N/A   Clear
6:53 PM 73.0 °F 61.0 °F 66% 30.06 in 10.0 mi SW 5.8 mph - N/A   Partly Cloudy
7:53 PM 70.0 °F 60.1 °F 71% 30.06 in 10.0 mi SW 4.6 mph - N/A   Clear
8:53 PM 64.9 °F 59.0 °F 81% 30.07 in 10.0 mi SSW 4.6 mph - N/A   Clear
9:53 PM 63.0 °F 57.9 °F 84% 30.08 in 10.0 mi SSW 4.6 mph - N/A   Clear
10:53 PM 62.1 °F 57.9 °F 86% 30.08 in 10.0 mi South 4.6 mph - N/A   Clear
11:53 PM 59.0 °F 57.0 °F 93% 30.09 in 10.0 mi South 4.6 mph - N/A   Clear